Portada
METAR-TAF:

METAR-TAF

Aeroports :

Kélibia, Tunísia

latitud: 36-51N, longitud: 011-05E, altitud: 29 m

Observació

L'informe es va fer fa 46 minuts, a les 11:00 UTC
Vent 10 kt del Oest/Nord-Oest amb ràfegues de 21 kt, variant entre Sud-Oest i Nord
Temperatura 29°C
Humitat 66%
Pressió 1015 hPa
Visibilitat 10 km o més
Escasses núvols a una alçada de 3300 ft

METAR: DTTL 171100Z 29010G21KT 220V360 9999 FEW033 29/22 Q1015

Hora: 12:46 (11:46 UTC)


TAF: manca

Observacions i pronòstics meteorològics de més de 4000 aeroports (METAR i TAF).

Les estacions disponibles són els punts grocs i vermells al mapa.

Posi el ratolí al punt desitjat per veure el nom de l'estació.

Feu clic per veure les observacions i els pronòstics meteorològics.

Per canviar el mapa: feu clic els botons verds amb una creu de color negre per apropar; al botó verd amb un guió per allunyar la imatge; o en les fletxes verdes per a mapes adjacents.


METAR-TAF: